Retour au catalogue

COSMOS 451

ActifNavigationLEO
NORAD 5554·PAYLOAD·🇷🇺 Russia

Lancé Oct 13, 1971 depuis Plesetsk Cosmodrome

Loading…

Prochains Passages (prochaines 24 heures)

TLE

FraisSource: Space-Track

Époque: Sep 14, 2026, 12:14 UTC

1 05554U 71086H   26257.51015149 -.00000020  00000-0 -44457-4 0  9991
2 05554  74.0252 274.6014 0052337 113.1813  40.9359 12.34309828474705

Suivez COSMOS 451 en temps réel avec AllMySat

Download on the App Store